Tracking 19575 objects as of 18-Feb-2019
HD Live streaming from Space Station
objects crossing your sky now

METEOR 2-5 DEB

Track METEOR 2-5 DEB now!
10-day predictions


NORAD ID: 39606
Int'l Code: 1979-095CH
Perigee: 820.1 km
Apogee: 852.3 km
Inclination: 81.2 °
Period: 101.5 minutes
Semi major axis: 7207 km
RCS: Unknown
Launch date: October 31, 1979
Source: Commonwealth of Independent States (former USSR) (CIS)
Launch site: PLESETSK MISSILE AND SPACE COMPLEX (PKMTR)

Note: This is SATELLITE DEBRIS
aabbcc
Your satellite tracking list
Your tracking list is empty




NASA's NSSDC Master Catalog

Two Line Element Set (TLE):
1 39606U 79095CH  19048.92500298 +.00000891 +00000-0 +42065-3 0  9999
2 39606 081.1945 275.4177 0022390 104.4771 255.8891 14.18901508267254
Source of the keplerian elements: AFSPC